EW4757 Weather Reports


Display with metric or nautical units.
time (UTC)temp
F
wind
direction
speed
MPH
gust
MPH
rain 1hr
in
rain 24hr
in
rain mn
in
humidity
%
barometer
mb
20260507164006 64 98 0.0 4.0 0.00 0.04 0.04 41 1010.3
20260507163504 63 275 0.0 5.0 0.00 0.04 0.04 41 1010.3
20260507163004 63 111 1.0 5.0 0.00 0.04 0.04 41 1010.5
20260507162502 63 328 0.0 3.0 0.00 0.04 0.04 40 1010.7
20260507162001 62 309 0.0 6.0 0.00 0.04 0.04 43 1010.6
20260507161605 61 80 1.0 6.0 0.00 0.04 0.04 45 1010.6
20260507161100 60 121 1.0 6.0 0.00 0.04 0.04 46 1010.7
20260507160559 61 146 2.0 6.0 0.00 0.04 0.04 47 1010.8
20260507160059 60 153 2.0 5.0 0.00 0.04 0.04 45 1010.9
20260507155557 59 143 1.0 6.0 0.00 0.04 0.04 44 1011.0
20260507155101 60 106 0.0 3.0 0.00 0.04 0.04 47 1010.9
20260507154559 60 81 0.0 3.0 0.00 0.04 0.04 46 1011.1
20260507154057 60 110 0.0 5.0 0.00 0.04 0.04 48 1011.2
20260507153555 59 103 1.0 5.0 0.00 0.04 0.04 47 1011.2
20260507153105 59 75 1.0 8.0 0.00 0.04 0.04 50 1011.3
20260507152554 58 339 1.0 8.0 0.00 0.04 0.04 50 1011.3
20260507152055 58 308 0.0 2.0 0.00 0.04 0.04 51 1011.4
20260507151555 57 336 0.0 4.0 0.00 0.04 0.04 53 1011.4
20260507151054 56 99 1.0 6.0 0.00 0.04 0.04 51 1011.4
20260507150554 56 97 1.0 6.0 0.00 0.04 0.04 51 1011.6
20260507145556 56 31 0.0 4.0 0.00 0.07 0.04 55 1011.7
20260507145053 56 106 0.0 6.0 0.00 0.07 0.04 55 1011.9
20260507144553 55 82 1.0 6.0 0.00 0.07 0.04 55 1011.9
20260507144054 55 58 0.0 5.0 0.00 0.07 0.04 56 1011.8
20260507143553 54 112 1.0 6.0 0.00 0.07 0.04 57 1011.7
20260507143104 54 85 1.0 6.0 0.00 0.07 0.04 57 1011.9
20260507142552 54 316 0.0 5.0 0.00 0.07 0.04 57 1012.0
20260507142051 54 65 0.0 5.0 0.00 0.07 0.04 57 1012.0
20260507141552 54 103 0.0 4.0 0.00 0.07 0.04 57 1012.0
20260507141051 54 81 0.0 4.0 0.00 0.07 0.04 58 1012.1
20260507140552 54 80 0.0 2.0 0.00 0.07 0.04 58 1012.2
20260507140054 54 327 0.0 1.0 0.00 0.07 0.04 63 1012.2
20260507135551 54 1 0.0 3.0 0.00 0.17 0.04 60 1012.4
20260507135051 54 341 0.0 3.0 0.00 0.17 0.04 59 1012.4
20260507134550 54 98 0.0 4.0 0.00 0.17 0.04 61 1012.6
20260507134051 54 98 0.0 4.0 0.00 0.17 0.04 60 1012.3
20260507133550 54 106 0.0 5.0 0.00 0.17 0.04 60 1012.3
20260507133050 54 120 0.0 4.0 0.00 0.17 0.04 62 1012.3
20260507132548 54 33 0.0 5.0 0.00 0.17 0.04 63 1012.4
20260507132051 54 359 1.0 5.0 0.00 0.17 0.04 62 1012.4
20260507131551 54 115 0.0 5.0 0.00 0.17 0.04 64 1012.3
20260507131048 54 119 0.0 5.0 0.00 0.17 0.04 64 1012.2
20260507130548 53 25 0.0 2.0 0.00 0.17 0.04 67 1012.3
20260507130100 53 65 0.0 2.0 0.00 0.17 0.04 66 1012.3
20260507125547 53 113 0.0 4.0 0.00 0.23 0.04 68 1012.3
20260507125047 53 94 0.0 4.0 0.00 0.23 0.04 67 1012.5
20260507124555 53 51 0.0 1.0 0.00 0.23 0.04 70 1012.5
20260507124048 54 16 0.0 2.0 0.00 0.23 0.04 71 1012.5
20260507123546 53 90 0.0 2.0 0.00 0.23 0.04 70 1012.4
20260507123046 53 90 0.0 2.0 0.00 0.23 0.04 70 1012.3
20260507122543 53 49 0.0 1.0 0.00 0.23 0.04 71 1012.3
20260507122044 53 49 0.0 1.0 0.00 0.23 0.04 71 1012.2
20260507121547 53 91 0.0 1.0 0.00 0.23 0.04 70 1012.2
20260507121043 53 84 0.0 1.0 0.00 0.23 0.04 72 1012.2
20260507120543 53 84 0.0 1.0 0.00 0.23 0.04 73 1012.2
20260507120043 53 337 0.0 1.0 0.00 0.23 0.04 72 1012.2
20260507115542 53 337 0.0 1.0 0.00 0.26 0.04 71 1012.1
20260507115041 53 106 0.0 3.0 0.00 0.26 0.04 71 1012.0
20260507114541 53 81 0.0 3.0 0.00 0.26 0.04 70 1012.0
20260507114040 53 138 0.0 1.0 0.00 0.26 0.04 69 1012.0
20260507113542 53 138 0.0 3.0 0.00 0.26 0.04 70 1011.9
20260507113045 53 101 0.0 3.0 0.00 0.26 0.04 71 1011.9
20260507112542 53 112 0.0 4.0 0.00 0.26 0.04 70 1011.8
20260507112042 53 115 0.0 4.0 0.00 0.26 0.04 71 1011.6
20260507111539 53 357 0.0 2.0 0.00 0.26 0.04 72 1011.7
20260507111038 53 106 0.0 2.0 0.00 0.26 0.04 73 1011.8
20260507110538 53 20 0.0 0.0 0.00 0.26 0.04 74 1011.9
20260507110049 53 20 0.0 0.0 0.00 0.26 0.04 74 1011.9
20260507105539 53 20 0.0 1.0 0.00 0.26 0.04 74 1011.7
20260507105037 53 323 0.0 1.0 0.00 0.26 0.04 72 1011.7
20260507104546 53 323 0.0 1.0 0.00 0.26 0.04 73 1011.6
20260507104035 53 323 0.0 0.0 0.00 0.26 0.04 74 1011.5
20260507103536 53 323 0.0 1.0 0.00 0.26 0.04 74 1011.4
20260507103050 53 323 0.0 2.0 0.00 0.26 0.04 74 1011.3
20260507102533 53 94 0.0 2.0 0.00 0.26 0.04 74 1011.4
20260507102032 53 94 0.0 1.0 0.00 0.26 0.04 74 1011.3
20260507101538 53 94 0.0 1.0 0.00 0.26 0.04 74 1011.2
20260507101032 53 94 0.0 2.0 0.00 0.26 0.04 74 1011.1
20260507100531 53 94 0.0 2.0 0.00 0.26 0.04 74 1011.2
20260507100031 53 331 0.0 3.0 0.00 0.26 0.04 74 1011.2
20260507095531 53 59 0.0 3.0 0.00 0.26 0.04 74 1011.1
20260507095031 53 84 0.0 2.0 0.00 0.26 0.04 74 1011.1
20260507094533 53 77 0.0 2.0 0.00 0.26 0.04 73 1011.1
20260507094029 53 77 0.0 2.0 0.00 0.26 0.04 73 1011.0
20260507093532 53 50 0.0 2.0 0.00 0.26 0.04 72 1011.0
20260507093029 53 113 0.0 1.0 0.00 0.26 0.04 70 1010.9
20260507092528 53 112 0.0 1.0 0.00 0.26 0.04 71 1010.9
20260507092027 53 112 0.0 2.0 0.00 0.26 0.04 71 1010.8
20260507091536 53 112 0.0 2.0 0.00 0.26 0.04 68 1010.7
20260507091030 53 113 0.0 1.0 0.00 0.26 0.04 69 1010.8
20260507090528 54 113 0.0 0.0 0.00 0.26 0.04 69 1010.9
20260507090033 54 113 0.0 3.0 0.00 0.26 0.04 69 1010.8
20260507085526 54 113 0.0 3.0 0.00 0.26 0.04 72 1010.9
20260507085026 54 108 0.0 2.0 0.00 0.26 0.04 69 1011.0
20260507084539 54 113 0.0 3.0 0.00 0.26 0.04 68 1010.8
20260507084025 54 305 0.0 3.0 0.00 0.26 0.04 68 1010.9
20260507083525 54 330 0.0 3.0 0.00 0.26 0.04 65 1010.7
20260507083025 54 69 0.0 3.0 0.00 0.26 0.04 59 1010.7
20260507082524 54 1 0.0 3.0 0.00 0.26 0.04 59 1010.7
20260507082024 54 77 0.0 4.0 0.00 0.26 0.04 60 1010.8
20260507081522 54 82 0.0 4.0 0.00 0.26 0.04 52 1010.7
20260507081022 53 93 0.0 2.0 0.00 0.26 0.04 45 1010.5
20260507080521 53 76 0.0 1.0 0.00 0.26 0.04 38 1010.3
20260507080021 53 76 0.0 0.0 0.00 0.26 0.04 34 1010.2
20260507075521 53 76 0.0 0.0 0.00 0.26 0.04 33 1010.2
20260507075022 53 77 0.0 1.0 0.00 0.26 0.04 34 1010.0
20260507074522 53 76 0.0 1.0 0.00 0.26 0.04 34 1010.1
20260507074022 53 76 0.0 1.0 0.00 0.26 0.04 36 1010.1
20260507073521 53 76 0.0 1.0 0.01 0.26 0.04 36 1010.1
20260507073021 53 76 0.0 0.0 0.01 0.26 0.04 38 1010.0
20260507072520 54 76 0.0 1.0 0.01 0.26 0.04 40 1010.0
20260507072020 54 77 0.0 1.0 0.01 0.26 0.04 43 1009.9
20260507071522 54 76 0.0 2.0 0.01 0.26 0.04 40 1010.0
20260507071019 54 76 0.0 3.0 0.01 0.26 0.04 43 1010.1
20260507070518 54 11 0.0 3.0 0.01 0.26 0.04 47 1010.2
20260507070018 54 103 0.0 3.0 0.01 0.26 0.04 48 1010.1
20260507065517 54 256 0.0 6.0 0.01 0.26 0.04 49 1010.0
20260507065018 54 89 0.0 6.0 0.01 0.26 0.04 50 1010.0
20260507064517 54 65 0.0 6.0 0.01 0.26 0.04 53 1010.1
20260507064017 54 337 0.0 6.0 0.01 0.26 0.04 56 1010.2
20260507063516 54 6 0.0 5.0 0.00 0.25 0.03 57 1010.3
20260507063016 54 85 1.0 5.0 0.00 0.25 0.03 53 1010.1
20260507062515 54 337 0.0 4.0 0.00 0.25 0.03 45 1010.2
20260507062015 54 326 0.0 4.0 0.00 0.25 0.03 46 1010.4
20260507061515 54 319 1.0 4.0 0.00 0.25 0.03 43 1010.4
20260507061013 54 314 0.0 2.0 0.00 0.25 0.03 35 1010.2
20260507060513 55 87 0.0 0.0 0.00 0.25 0.03 34 1010.4
20260507060019 55 87 0.0 0.0 0.00 0.25 0.03 39 1010.3
20260507055513 55 83 0.0 1.0 0.01 0.25 0.03 38 1010.2
20260507055014 55 61 0.0 1.0 0.01 0.25 0.03 40 1010.2
20260507054512 55 344 0.0 4.0 0.01 0.25 0.03 40 1010.1
20260507054014 55 99 0.0 2.0 0.01 0.25 0.03 36 1010.1
20260507053511 55 99 0.0 3.0 0.02 0.25 0.03 36 1010.1
20260507053011 55 85 0.0 3.0 0.03 0.25 0.03 34 1010.2
20260507052509 56 101 0.0 3.0 0.03 0.25 0.03 29 1010.3
20260507052009 56 24 0.0 3.0 0.03 0.25 0.03 26 1010.3
20260507051508 56 44 0.0 1.0 0.03 0.25 0.03 21 1010.1
20260507051007 56 326 0.0 2.0 0.03 0.25 0.03 22 1010.3
20260507050505 56 112 0.0 2.0 0.03 0.25 0.03 25 1010.1
20260507050017 56 112 0.0 1.0 0.03 0.25 0.03 30 1010.2
20260507045502 57 112 0.0 1.0 0.02 0.24 0.02 38 1010.2
20260507045003 57 112 0.0 4.0 0.02 0.24 0.02 44 1010.0
20260507044606 57 112 0.0 4.0 0.02 0.24 0.02 50 1010.2
20260507044058 58 95 0.0 6.0 0.02 0.24 0.02 58 1010.4
20260507043557 58 328 0.0 6.0 0.01 0.23 0.01 63 1010.3
20260507043057 58 83 1.0 6.0 0.00 0.22 0.00 67 1010.2
20260507042600 58 276 0.0 6.0 0.00 0.22 0.00 68 1009.9
20260507042057 58 100 0.0 4.0 0.00 0.22 0.00 69 1009.9
20260507041602 59 37 0.0 5.0 0.00 0.22 0.00 68 1009.9
20260507041056 59 96 1.0 5.0 0.00 0.22 0.00 69 1010.1
20260507040552 59 114 1.0 6.0 0.00 0.22 0.00 70 1010.1
20260507040052 59 320 0.0 6.0 0.00 0.22 0.00 70 1010.3
20260507035549 60 104 1.0 3.0 0.00 0.22 0.22 70 1010.1
20260507035047 60 80 0.0 3.0 0.00 0.22 0.22 70 1010.0
20260507034545 60 1 0.0 3.0 0.00 0.22 0.22 69 1009.7
20260507034044 60 106 0.0 5.0 0.00 0.22 0.22 70 1009.4
20260507033542 60 106 0.0 5.0 0.00 0.22 0.22 68 1009.3
20260507033042 60 95 0.0 3.0 0.00 0.22 0.22 68 1009.6
20260507032541 61 122 0.0 5.0 0.00 0.22 0.22 69 1009.8
20260507032037 61 49 0.0 5.0 0.00 0.22 0.22 70 1009.7
20260507031540 61 330 1.0 5.0 0.00 0.22 0.22 71 1009.6
20260507031036 61 58 1.0 4.0 0.00 0.22 0.22 71 1009.8
20260507030534 61 101 0.0 8.0 0.00 0.22 0.22 72 1009.8
20260507030032 61 113 0.0 8.0 0.00 0.22 0.22 72 1009.5
20260507025529 61 113 0.0 5.0 0.00 0.22 0.22 72 1009.4
20260507025028 62 147 0.0 4.0 0.00 0.22 0.22 72 1009.2
20260507024533 62 68 1.0 4.0 0.00 0.22 0.22 73 1009.0
20260507024025 62 323 0.0 4.0 0.00 0.22 0.22 73 1008.9
20260507023524 62 81 0.0 8.0 0.00 0.22 0.22 72 1009.2
20260507023023 62 329 0.0 9.0 0.00 0.22 0.22 72 1009.1
20260507022521 62 61 2.0 9.0 0.00 0.22 0.22 72 1009.0
20260507022019 62 97 0.0 9.0 0.00 0.22 0.22 71 1009.1
20260507021521 62 314 0.0 9.0 0.00 0.22 0.22 71 1009.0
20260507021018 63 298 2.0 6.0 0.00 0.22 0.22 71 1009.1
20260507020514 63 241 1.0 7.0 0.00 0.22 0.22 70 1009.1
20260507020013 63 115 1.0 7.0 0.00 0.22 0.22 67 1008.9
20260507015511 63 52 1.0 6.0 0.00 0.22 0.22 65 1008.7
20260507015014 64 98 0.0 5.0 0.00 0.22 0.22 63 1008.6
20260507014508 64 89 0.0 6.0 0.00 0.22 0.22 62 1008.7
20260507014007 64 95 1.0 6.0 0.00 0.22 0.22 60 1008.8
20260507013506 64 11 0.0 3.0 0.00 0.22 0.22 59 1008.6
20260507013004 64 108 0.0 3.0 0.00 0.22 0.22 59 1008.7
20260507012503 65 89 0.0 3.0 0.00 0.22 0.22 61 1008.8
20260507012001 65 100 0.0 4.0 0.00 0.22 0.22 62 1008.9
20260507011605 65 139 0.0 7.0 0.00 0.22 0.22 63 1008.8
20260507011059 65 103 0.0 7.0 0.00 0.22 0.22 64 1008.6
20260507010557 65 11 1.0 7.0 0.00 0.22 0.22 65 1008.7
20260507010056 66 100 2.0 7.0 0.00 0.22 0.22 66 1008.5
20260507005554 66 78 2.0 7.0 0.00 0.22 0.22 67 1008.6
20260507005053 66 48 0.0 2.0 0.00 0.22 0.22 65 1008.5
20260507004551 66 113 0.0 5.0 0.00 0.22 0.22 65 1008.5
20260507004050 67 314 0.0 5.0 0.00 0.22 0.22 64 1008.5
20260507003551 67 43 0.0 3.0 0.00 0.22 0.22 65 1008.5
20260507003047 68 304 0.0 7.0 0.00 0.22 0.22 63 1008.4
20260507002545 68 32 0.0 7.0 0.00 0.22 0.22 63 1008.3
20260507002044 68 318 0.0 2.0 0.00 0.22 0.22 62 1008.2
20260507001557 68 302 0.0 0.0 0.00 0.22 0.22 65 1008.1
20260507001041 68 302 0.0 0.0 0.00 0.22 0.22 66 1008.1
20260507000540 69 302 0.0 1.0 0.00 0.22 0.22 67 1008.0
20260507000053 69 302 0.0 2.0 0.00 0.22 0.22 68 1007.9
20260506235540 69 302 0.0 3.0 0.00 0.22 0.22 68 1007.7
20260506235039 69 295 0.0 3.0 0.00 0.22 0.22 68 1007.7
20260506234547 69 295 1.0 3.0 0.00 0.22 0.22 68 1007.7
20260506234037 69 307 0.0 2.0 0.00 0.22 0.22 67 1007.6
20260506233535 69 295 0.0 2.0 0.00 0.22 0.22 69 1007.4
20260506233034 69 304 0.0 2.0 0.00 0.22 0.22 68 1007.4
20260506232531 69 298 0.0 2.0 0.00 0.22 0.22 70 1007.1
20260506232029 69 306 0.0 2.0 0.00 0.22 0.22 70 1007.3
20260506231533 69 309 0.0 2.0 0.00 0.22 0.22 70 1007.1
20260506231029 69 302 0.0 2.0 0.00 0.22 0.22 70 1007.2
20260506230525 70 297 0.0 3.0 0.00 0.22 0.22 70 1007.0
20260506230028 70 298 1.0 3.0 0.00 0.22 0.22 71 1007.0
20260506225523 70 303 0.0 3.0 0.00 0.22 0.22 71 1007.1
20260506225020 70 316 0.0 1.0 0.00 0.22 0.22 70 1007.1
20260506224520 70 309 0.0 1.0 0.00 0.22 0.22 70 1007.0
20260506224017 70 309 0.0 2.0 0.00 0.22 0.22 71 1007.1
20260506223516 70 309 0.0 3.0 0.00 0.22 0.22 71 1007.0
20260506223015 70 309 0.0 5.0 0.00 0.22 0.22 71 1006.9
20260506222515 70 301 2.0 5.0 0.00 0.22 0.22 71 1006.9
20260506222015 70 308 0.0 2.0 0.00 0.22 0.22 71 1007.0
20260506221514 71 302 0.0 6.0 0.00 0.22 0.22 71 1006.9
20260506221014 71 333 1.0 6.0 0.00 0.22 0.22 71 1006.9
20260506220514 71 317 1.0 5.0 0.00 0.22 0.22 71 1006.8
20260506220015 71 311 0.0 5.0 0.00 0.22 0.22 71 1006.9
20260506215514 71 293 1.0 4.0 0.00 0.22 0.22 71 1006.9
20260506215014 70 324 0.0 5.0 0.00 0.22 0.22 71 1006.8
20260506214514 70 331 2.0 5.0 0.00 0.22 0.22 71 1006.8
20260506214014 70 305 0.0 5.0 0.00 0.22 0.22 71 1006.8
20260506213515 71 304 2.0 5.0 0.00 0.22 0.22 71 1006.8
20260506213013 71 312 0.0 5.0 0.00 0.22 0.22 71 1006.8
20260506212513 71 304 2.0 5.0 0.00 0.22 0.22 71 1006.8
20260506212011 71 295 0.0 3.0 0.00 0.22 0.22 71 1006.7
20260506211511 71 302 0.0 4.0 0.00 0.22 0.22 71 1006.5
20260506211008 70 313 1.0 5.0 0.00 0.22 0.22 71 1006.6
20260506210507 70 309 2.0 5.0 0.00 0.22 0.22 71 1006.4
20260506210005 71 292 2.0 5.0 0.00 0.22 0.22 71 1006.5
20260506205504 71 323 0.0 5.0 0.00 0.22 0.22 71 1006.4
20260506205003 71 294 2.0 5.0 0.00 0.22 0.22 71 1006.2
20260506204502 71 316 1.0 6.0 0.00 0.22 0.22 71 1006.3
20260506204101 71 305 1.0 6.0 0.00 0.22 0.22 71 1006.2
20260506203559 71 309 2.0 6.0 0.00 0.22 0.22 71 1006.2
20260506203058 71 323 1.0 6.0 0.00 0.22 0.22 71 1006.2
20260506202556 71 302 2.0 6.0 0.00 0.22 0.22 71 1006.3
20260506202155 71 309 2.0 6.0 0.00 0.22 0.22 71 1006.4
20260506201553 70 309 1.0 7.0 0.00 0.22 0.22 71 1006.5
20260506201051 70 305 3.0 7.0 0.00 0.22 0.22 71 1006.4
20260506200550 70 302 2.0 4.0 0.00 0.22 0.22 71 1006.6
20260506200048 70 311 1.0 4.0 0.00 0.22 0.22 71 1006.5
20260506195547 70 309 1.0 4.0 0.00 0.22 0.22 71 1006.5
20260506195045 69 300 2.0 6.0 0.00 0.22 0.22 71 1006.6
20260506194545 70 311 3.0 8.0 0.00 0.22 0.22 71 1006.6
20260506194044 69 305 2.0 8.0 0.00 0.22 0.22 71 1006.5
20260506193540 69 305 2.0 6.0 0.00 0.22 0.22 71 1006.6
20260506193048 69 307 1.0 5.0 0.00 0.22 0.22 71 1006.6
20260506192538 69 314 0.0 4.0 0.00 0.22 0.22 71 1006.6
20260506192036 69 305 1.0 5.0 0.00 0.22 0.22 71 1006.7
20260506191535 69 295 2.0 5.0 0.00 0.22 0.22 71 1006.8
20260506191033 69 336 2.0 5.0 0.00 0.22 0.22 71 1006.7
20260506190531 69 302 0.0 8.0 0.00 0.22 0.22 70 1006.8
20260506190030 69 308 1.0 7.0 0.00 0.22 0.22 70 1006.8
20260506185528 68 330 3.0 6.0 0.00 0.22 0.22 70 1006.8
20260506185027 68 309 1.0 5.0 0.00 0.22 0.22 70 1006.8
20260506184530 68 306 2.0 6.0 0.00 0.22 0.22 69 1006.9
20260506184025 68 305 3.0 6.0 0.00 0.22 0.22 69 1007.0
20260506183523 67 312 3.0 5.0 0.00 0.22 0.22 69 1007.0
20260506183022 67 289 1.0 5.0 0.00 0.22 0.22 68 1007.0
20260506182519 67 313 2.0 5.0 0.00 0.22 0.22 67 1007.1
20260506182022 67 309 2.0 5.0 0.00 0.22 0.22 67 1007.3
20260506181533 67 328 1.0 8.0 0.00 0.22 0.22 66 1007.2
20260506181017 67 299 3.0 8.0 0.00 0.22 0.22 68 1007.2
20260506180516 67 317 2.0 6.0 0.00 0.22 0.22 67 1007.3
20260506180013 66 306 1.0 6.0 0.00 0.22 0.22 66 1007.3
20260506175514 66 303 3.0 6.0 0.00 0.22 0.22 67 1007.3
20260506175010 66 288 2.0 5.0 0.00 0.22 0.22 63 1007.4
20260506174508 66 296 2.0 6.0 0.00 0.22 0.22 64 1007.4
20260506174009 66 300 3.0 8.0 0.00 0.22 0.22 65 1007.5
20260506173508 66 310 4.0 8.0 0.00 0.22 0.22 64 1007.5
20260506173004 65 288 3.0 8.0 0.00 0.22 0.22 62 1007.5
20260506172502 65 286 4.0 7.0 0.00 0.22 0.22 63 1007.5
20260506172100 65 300 3.0 6.0 0.00 0.22 0.22 60 1007.6
20260506171607 65 312 4.0 8.0 0.00 0.22 0.22 60 1007.5
20260506171058 65 291 3.0 8.0 0.00 0.22 0.22 57 1007.5
20260506170557 65 324 4.0 8.0 0.00 0.22 0.22 57 1007.5
20260506170109 64 311 2.0 7.0 0.00 0.22 0.22 53 1007.5
20260506165556 64 286 3.0 7.0 0.00 0.22 0.22 52 1007.7
20260506165056 64 315 3.0 9.0 0.00 0.22 0.22 52 1007.7
20260506164554 64 298 2.0 8.0 0.00 0.22 0.22 48 1007.7